GFSCGP_850_temp_021.txt.gz
Temp
14 11 10 12 11 13 15 15 14 14 15 15 15 14 14 17 18 15 11 10 9 8 8 10 11 12 12 13 13 13 13 12 12 12 11 11 10 10 9 9 9 9 9 9
11 11 12 13 13 14 13 14 12 13 15 15 14 14 14 14 15 15 10 9 8 7 9 9 10 10 10 10 11 11 10 10 10 10 9 9 9 9 8 8 8 8 8 8
10 13 14 14 14 14 14 13 13 13 14 14 14 12 14 15 11 9 8 8 7 7 7 7 8 8 9 9 9 10 10 10 9 9 8 8 8 8 7 7 7 7 7 7
11 14 14 13 13 13 13 13 13 14 12 12 13 10 12 13 8 8 7 6 6 6 6 6 6 7 7 7 8 8 9 9 9 9 9 9 7 7 6 6 6 6 6 5
13 12 13 13 13 13 12 13 13 13 12 11 12 9 10 10 9 7 6 6 5 5 5 6 6 6 7 7 7 8 8 9 8 9 9 8 8 7 6 5 5 5 5 4
11 13 13 13 14 14 12 13 12 11 9 8 10 10 11 12 10 7 6 5 4 4 4 5 5 6 7 7 8 8 8 8 7 7 7 7 7 7 6 6 6 5 4 4
12 12 12 13 13 12 12 10 9 8 6 8 10 10 11 11 10 8 5 4 4 4 4 4 5 5 6 6 6 6 6 7 6 6 6 5 5 5 5 5 4 4 4 3
11 11 11 12 12 11 10 12 8 8 8 8 10 9 11 6 5 5 4 4 4 4 4 3 3 4 4 5 5 5 5 5 5 4 4 3 3 3 3 2 2 2 2 2
11 11 12 12 12 12 11 10 10 9 3 5 8 10 7 6 5 4 4 4 4 3 3 3 3 3 3 2 2 1 1 2 2 2 2 2 2 2 1 1 1 1 1 1
11 10 11 10 11 11 11 10 9 6 5 5 8 9 9 6 4 3 3 3 3 3 3 3 3 2 1 1 1 1 1 1 0 0 0 -0 -0 0 0 0 1 1 1 0
10 9 9 10 9 10 10 9 9 9 7 6 5 8 7 6 4 3 3 4 4 4 4 3 2 1 1 0 0 -0 -0 -0 -0 -0 -1 -1 -1 -1 -1 -1 -1 -1 -0 -0
9 7 4 7 9 8 9 8 8 6 6 5 7 8 6 4 5 5 4 5 5 4 3 2 1 0 -0 -0 -1 -1 -1 -1 -1 -1 -2 -2 -2 -2 -2 -2 -1 -1 -1 -1
8 5 2 4 7 7 8 7 7 7 4 6 6 5 4 4 4 5 5 5 3 2 1 0 0 -0 -1 -1 -1 -1 -1 -1 -1 -1 -1 -2 -2 -2 -2 -2 -3 -3 -2 -2
8 6 4 6 5 6 5 5 5 5 1 3 4 5 7 5 2 3 4 3 3 1 1 1 0 0 -0 -0 -1 -0 -1 -1 -2 -2 -2 -2 -2 -2 -3 -3 -3 -3 -3 -3
6 2 4 4 5 4 4 3 4 4 4 3 5 4 6 5 3 3 3 3 2 1 1 0 -0 -0 -0 -1 -1 -1 -2 -2 -3 -3 -3 -3 -3 -3 -3 -3 -3 -3 -3 -3
5 1 2 -0 3 3 2 3 3 3 3 3 3 3 5 3 3 2 2 2 1 1 1 0 -0 -1 -1 -1 -2 -2 -3 -3 -4 -4 -5 -5 -5 -4 -4 -4 -4 -4 -4 -4
2 -1 -4 -2 1 -0 -2 1 2 3 3 2 1 2 -3 -0 1 0 1 1 1 0 0 -0 -0 -1 -1 -2 -2 -3 -3 -4 -5 -6 -6 -6 -6 -6 -5 -5 -5 -6 -6 -6
0 -3 -5 -6 -7 -5 1 2 2 1 1 -2 -3 -5 -4 -1 -0 0 1 1 0 0 -0 -0 -0 -1 -2 -2 -3 -3 -4 -4 -5 -6 -6 -6 -6 -7 -7 -8 -8 -8 -9 -9
1 -0 -6 -5 -9 -3 1 2 2 2 -0 -3 -3 -4 -1 -1 -1 -1 0 -0 -0 -0 -1 -1 -1 -2 -2 -2 -3 -4 -5 -5 -6 -6 -6 -6 -7 -8 -9 -9 -10 -10 -11 -11
-1 -0 -1 -11 -6 -6 -2 -0 2 -0 -2 -2 -1 -4 -2 -2 -6 -5 -1 -1 -1 -1 -1 -2 -2 -2 -2 -3 -4 -4 -5 -6 -6 -6 -7 -8 -9 -10 -10 -11 -12 -13 -13 -14
-8 -9 -3 -2 -6 -6 -4 -2 1 -5 -2 -1 -0 -1 -1 -5 -2 -1 -1 -1 -1 -1 -2 -2 -2 -3 -3 -4 -5 -5 -6 -6 -6 -7 -7 -9 -10 -11 -12 -12 -13 -14 -15 -17
-3 -6 -8 -11 -11 -5 -0 -3 -2 -1 -0 1 0 -0 -1 -0 -0 -1 -1 -1 -2 -2 -2 -2 -3 -4 -4 -5 -5 -6 -7 -7 -7 -8 -9 -10 -11 -12 -13 -14 -15 -16 -18 -19
-3 -3 -6 -4 -5 -1 -1 1 2 1 1 -0 -0 -0 -0 -1 -1 -1 -2 -2 -2 -2 -2 -3 -3 -4 -5 -6 -6 -7 -7 -7 -8 -9 -10 -11 -12 -13 -14 -16 -16 -18 -19 -20
-3 -2 -4 -4 -3 -2 1 1 1 0 0 0 -0 -0 -1 -1 -1 -1 -2 -2 -2 -3 -3 -4 -4 -5 -6 -7 -7 -8 -8 -8 -9 -10 -11 -12 -13 -14 -15 -17 -18 -19 -19 -20
-2 -3 -5 -4 -1 -0 0 1 1 0 -0 -0 0 -0 -1 -1 -1 -2 -2 -2 -3 -3 -4 -5 -6 -6 -7 -7 -8 -9 -9 -9 -10 -11 -12 -13 -14 -15 -16 -17 -18 -20 -19 -22
-1 -1 -2 -2 -0 -1 0 1 1 0 0 0 -0 -1 -1 -2 -2 -2 -3 -3 -4 -5 -6 -6 -7 -7 -8 -8 -8 -9 -10 -10 -11 -12 -12 -14 -15 -16 -16 -18 -19 -17 -19 -21

GFSCGP_850_temp_024.txt.gz
Temp
13 10 10 11 11 13 14 13 12 13 13 14 13 13 13 16 15 11 8 7 6 6 6 8 9 10 10 11 12 11 11 11 12 12 11 10 10 9 9 9 9 9 9 9
10 10 12 12 11 12 12 12 11 12 13 14 13 13 13 12 10 10 7 6 5 5 6 7 8 9 10 10 11 11 11 10 10 10 10 9 9 8 8 8 8 8 8 8
10 13 12 12 12 12 12 11 12 12 13 12 13 11 12 8 7 7 6 5 5 5 6 6 7 8 9 9 9 10 10 10 10 9 8 8 8 7 7 7 7 7 6 7
10 12 13 12 13 12 12 12 12 12 12 11 12 9 10 10 7 5 4 4 4 4 5 5 6 7 7 7 8 9 9 9 9 9 9 9 8 7 6 6 6 6 6 5
12 13 12 12 12 11 12 12 13 13 11 11 11 9 9 8 7 5 3 3 3 3 4 5 5 6 7 7 8 8 8 9 8 8 8 8 8 6 5 5 5 5 5 5
11 13 12 12 12 12 11 12 9 7 8 7 9 9 9 10 9 4 3 3 3 3 4 4 5 5 6 7 8 8 8 9 9 8 8 7 6 6 6 6 5 4 3 4
11 11 12 13 12 11 11 10 9 8 6 8 9 8 9 6 6 5 3 3 3 4 4 4 5 5 5 6 6 6 6 7 6 6 6 6 5 5 5 5 4 4 3 3
10 11 10 11 12 11 9 10 8 8 7 8 7 9 9 3 3 3 4 4 4 4 4 4 5 5 5 5 5 4 4 4 4 4 3 3 2 2 2 2 2 2 2 2
9 10 11 11 12 11 11 9 9 8 -1 4 7 7 5 4 2 2 3 4 4 4 4 4 4 4 4 3 3 3 3 3 2 2 2 2 1 1 1 1 0 0 -0 0
10 10 10 11 11 10 10 9 8 5 5 4 7 8 7 4 3 2 2 3 4 4 4 4 4 3 3 2 2 2 1 1 1 1 1 1 1 1 0 0 1 0 0 0
9 10 9 9 9 9 9 8 9 8 5 5 4 7 7 5 4 3 3 4 5 5 5 4 3 2 2 1 1 1 1 0 0 -0 -0 -0 -1 -1 -1 -1 -1 -1 -1 -1
9 8 5 8 8 7 9 8 8 5 6 4 5 8 7 5 4 4 5 6 5 5 4 2 2 1 1 1 0 0 -0 -0 -0 -1 -1 -2 -2 -2 -2 -2 -2 -2 -2 -2
7 6 1 4 7 7 7 7 6 5 2 2 5 5 4 4 4 5 5 5 5 5 3 2 1 1 0 0 -0 -0 -1 -1 -1 -1 -2 -2 -2 -2 -2 -2 -3 -3 -3 -3
9 5 5 8 6 6 5 5 5 5 1 2 4 5 6 4 3 4 5 5 5 4 2 1 1 0 0 -0 -0 -0 -1 -1 -1 -2 -2 -2 -3 -3 -3 -3 -3 -3 -3 -3
6 6 4 4 5 5 4 4 3 4 4 4 6 4 5 4 3 4 5 4 3 2 1 1 1 0 -0 -0 0 -0 -0 -1 -2 -2 -3 -3 -3 -4 -4 -4 -4 -4 -4 -4
4 2 2 0 3 3 2 3 2 3 3 3 4 3 5 5 4 2 3 3 2 2 1 1 1 0 0 -0 -0 -1 -1 -2 -3 -3 -4 -4 -4 -4 -4 -4 -5 -5 -5 -5
3 -0 -1 0 -0 0 -2 0 3 4 3 3 2 3 -2 1 1 1 2 1 1 1 1 0 0 -0 -0 -1 -1 -2 -2 -3 -4 -4 -4 -5 -5 -5 -5 -5 -5 -5 -6 -6
0 -1 -1 -4 -6 -4 2 1 1 2 2 -1 -2 -5 -2 1 2 2 1 1 0 0 0 -0 -0 -0 -1 -1 -2 -3 -3 -3 -4 -5 -5 -5 -5 -6 -6 -6 -6 -7 -7 -8
1 0 -5 -3 -7 -2 2 2 1 1 -0 -3 -3 -4 0 1 -1 -1 0 -0 0 0 -0 -0 -1 -1 -1 -2 -2 -3 -4 -4 -5 -5 -5 -6 -6 -6 -7 -7 -8 -8 -9 -9
-1 0 -0 -10 -7 -5 -1 0 1 0 -3 -3 -1 -3 -3 -2 -6 -4 0 -1 -1 -1 -1 -1 -1 -2 -2 -3 -3 -4 -4 -5 -5 -5 -6 -6 -6 -7 -7 -9 -9 -10 -10 -11
-7 -6 -1 -2 -8 -7 -4 -2 1 -4 -1 1 2 2 -2 -5 -1 1 0 -0 -1 -1 -1 -2 -2 -2 -3 -3 -4 -5 -5 -6 -6 -6 -6 -6 -7 -8 -9 -9 -10 -11 -11 -13
-4 -5 -6 -9 -6 -5 -2 -3 -2 -0 0 2 2 1 0 1 1 0 0 -1 -1 -1 -2 -2 -2 -3 -3 -4 -4 -5 -6 -6 -6 -6 -7 -7 -9 -10 -10 -10 -10 -11 -13 -14
-2 -3 -6 -4 -5 -1 -1 1 2 2 3 2 1 1 1 0 -0 -0 -1 -1 -1 -2 -2 -2 -3 -3 -4 -5 -5 -5 -6 -6 -6 -6 -7 -9 -10 -10 -11 -11 -12 -12 -14 -16
-4 -3 -4 -4 -3 -2 -0 2 2 1 1 1 1 1 0 -0 -1 -1 -1 -1 -2 -2 -2 -3 -3 -4 -5 -6 -6 -6 -7 -7 -7 -7 -8 -9 -10 -11 -11 -12 -13 -14 -15 -16
-3 -4 -6 -5 -2 -1 -1 0 1 1 1 0 -0 -0 -0 -1 -1 -1 -1 -2 -2 -2 -3 -3 -4 -5 -6 -6 -7 -7 -7 -7 -7 -8 -9 -10 -11 -11 -12 -13 -14 -15 -15 -17
-2 -1 -2 -3 0 -1 -0 1 1 0 0 1 0 -0 -0 -1 -1 -1 -1 -2 -3 -3 -3 -4 -5 -6 -7 -7 -8 -9 -8 -8 -8 -9 -10 -11 -12 -12 -13 -14 -14 -14 -16 -16

GFSCGP_850_temp_030.txt.gz
Temp
12 10 10 10 10 12 12 11 12 12 12 13 12 11 11 9 7 5 5 5 6 6 6 7 8 8 9 10 10 11 10 10 10 10 10 10 10 9 9 8 8 8 9 9
9 9 11 11 10 11 11 11 10 11 11 11 11 11 11 6 5 5 4 4 5 5 6 7 8 9 9 9 10 10 10 10 10 10 10 9 9 8 8 8 7 7 7 7
10 12 10 11 10 10 9 9 10 12 11 11 11 9 7 4 3 3 3 4 4 5 5 6 7 8 8 9 9 9 10 10 10 10 10 10 9 8 8 8 8 8 7 7
9 10 11 10 10 10 10 9 10 11 11 10 10 9 10 5 3 2 2 3 4 4 5 6 6 7 8 8 8 9 9 9 9 9 10 10 10 10 8 7 7 6 6 6
11 9 10 10 10 10 11 9 9 10 9 9 10 8 8 4 4 2 1 2 3 4 5 6 6 6 7 7 7 8 8 8 8 8 8 8 8 7 5 5 5 5 4 4
10 11 9 10 10 10 8 9 7 6 7 7 9 9 8 6 7 3 2 2 3 3 4 5 5 6 6 6 6 6 7 7 7 7 8 7 7 6 5 5 5 4 3 3
10 10 11 11 10 10 9 9 9 8 6 8 7 7 8 7 5 4 2 2 3 3 4 4 5 5 5 5 5 6 6 6 6 6 6 6 5 5 5 4 3 3 2 2
8 9 9 9 10 9 8 9 8 9 7 7 6 7 9 3 2 3 4 4 3 4 4 4 4 4 4 4 5 5 5 5 5 4 4 4 3 3 3 3 2 2 1 1
8 10 9 9 10 10 9 9 9 6 -2 4 7 8 4 2 2 1 2 3 3 3 4 4 4 4 4 4 4 4 4 3 3 3 2 2 2 2 2 1 1 1 1 1
10 11 9 9 10 9 9 8 8 5 6 5 7 7 9 4 2 -0 -0 2 3 4 4 4 4 4 4 3 3 3 3 2 2 2 1 1 1 0 0 -0 -0 -0 -1 -1
8 10 8 9 8 7 7 8 7 7 6 6 4 8 5 6 2 1 1 3 4 4 4 4 4 4 3 3 2 2 2 1 1 1 0 0 0 -0 -0 -1 -1 -2 -2 -2
8 7 5 7 7 6 7 7 7 8 6 3 4 9 3 4 3 3 3 5 5 5 5 4 4 3 3 2 2 2 1 1 0 0 -0 -0 -0 -1 -1 -2 -2 -2 -2 -2
7 6 3 6 7 6 6 6 6 4 2 3 8 7 3 3 2 4 4 5 6 5 5 4 4 4 3 2 2 1 1 0 -0 -0 -1 -1 -1 -2 -2 -2 -2 -2 -2 -3
9 5 6 9 7 6 5 5 4 6 7 7 7 8 5 4 3 3 5 5 5 6 5 5 5 4 3 2 1 1 0 -0 -1 -1 -1 -1 -2 -2 -2 -3 -3 -3 -3 -3
8 6 5 6 7 6 6 6 3 4 7 8 8 6 5 4 3 5 6 6 5 5 5 5 4 4 3 1 1 0 -0 -1 -1 -1 -1 -2 -2 -3 -3 -3 -4 -4 -4 -4
4 5 4 3 3 4 4 4 3 5 4 4 4 4 5 6 6 5 5 5 5 5 5 5 4 4 2 1 1 0 -0 -1 -1 -1 -2 -2 -2 -3 -3 -4 -4 -4 -4 -4
3 2 2 5 1 2 3 3 3 3 3 5 4 6 -1 1 1 3 5 4 4 4 4 3 3 3 2 1 1 0 -0 -1 -1 -1 -2 -2 -3 -3 -3 -4 -4 -4 -5 -5
1 1 1 0 0 3 4 0 2 4 3 2 -0 -2 -1 1 3 3 3 3 3 3 2 2 2 2 1 0 -0 -0 -1 -1 -1 -2 -2 -3 -3 -3 -4 -4 -4 -5 -5 -5
1 2 -1 1 0 1 3 1 1 2 2 -2 0 0 1 1 0 1 2 3 3 2 2 1 1 0 0 0 0 -0 -0 -1 -2 -2 -2 -3 -3 -3 -4 -5 -5 -6 -5 -6
-1 0 3 -3 1 2 1 0 1 1 -0 -3 -0 -2 -2 -1 -4 -3 3 3 2 2 1 1 0 -0 -0 -0 -1 -1 -1 -2 -2 -2 -3 -4 -4 -4 -5 -5 -6 -6 -6 -6
-1 -2 2 -0 1 -1 -3 -3 1 -0 2 -1 1 1 -1 -4 1 3 3 2 2 2 1 0 -0 -0 -1 -1 -2 -2 -2 -2 -3 -3 -4 -4 -4 -5 -6 -6 -6 -6 -7 -7
-1 -0 -1 -2 -1 0 -2 -2 0 0 2 4 2 2 2 3 2 2 2 2 1 1 1 -0 -0 -0 -1 -1 -2 -2 -2 -3 -4 -4 -5 -5 -6 -6 -6 -7 -7 -8 -8 -8
0 0 -1 0 -0 -2 -1 1 2 3 4 2 3 3 2 2 1 1 1 1 1 0 0 -0 -1 -1 -1 -2 -2 -2 -3 -3 -4 -5 -6 -6 -6 -7 -8 -8 -8 -9 -10 -10
-3 -3 -2 -1 -3 -2 -0 2 2 2 3 3 2 2 1 0 1 0 0 0 0 0 -0 -0 -1 -1 -1 -2 -2 -3 -3 -4 -5 -6 -6 -7 -7 -8 -9 -9 -9 -10 -11 -11
-2 -3 -5 -4 -2 -2 0 1 3 2 2 2 1 1 0 -0 0 -0 -0 -0 -0 -0 -1 -1 -1 -1 -2 -2 -2 -3 -4 -5 -6 -7 -7 -8 -9 -9 -10 -10 -10 -11 -11 -12
-3 -3 -3 -4 0 1 2 3 3 2 2 1 1 0 0 -0 -1 -1 -1 -1 -1 -1 -1 -2 -2 -2 -2 -3 -3 -4 -5 -7 -7 -8 -8 -9 -10 -10 -10 -11 -11 -12 -12 -13

GFSCGP_850_temp_033.txt.gz
Temp
12 10 10 10 10 12 11 11 12 12 12 13 12 11 12 7 7 5 4 5 6 7 6 7 8 8 9 9 10 9 9 9 9 9 9 9 9 8 9 9 8 8 8 8
9 9 11 10 10 12 10 11 11 10 11 12 11 10 10 6 5 5 5 5 5 5 6 6 7 8 9 9 9 9 10 9 10 10 10 10 9 9 9 8 8 8 8 8
9 12 10 11 9 10 9 10 10 12 11 10 10 10 8 4 3 3 4 4 4 5 6 7 8 8 8 9 9 9 10 10 10 10 10 10 10 9 8 8 8 8 7 7
9 10 10 10 10 9 9 8 10 10 10 10 10 10 9 5 3 2 2 3 4 5 6 6 7 7 8 8 9 9 9 9 9 9 9 9 9 9 8 7 6 6 5 5
11 8 9 10 10 9 10 7 8 9 9 9 9 9 8 5 5 2 1 2 3 4 5 5 6 6 7 7 7 7 8 8 8 8 8 8 7 6 5 5 4 4 4 4
9 10 9 10 9 9 7 8 7 5 7 7 9 10 9 7 7 2 2 3 4 4 4 5 5 6 6 6 6 7 7 7 7 7 7 7 7 6 6 5 5 4 3 3
9 9 10 10 8 9 9 9 8 8 7 8 6 7 9 9 6 5 3 2 3 4 4 5 5 5 6 6 6 6 6 6 6 6 6 6 6 5 5 5 4 3 2 2
8 9 8 8 9 9 7 9 8 8 7 8 5 7 10 4 3 4 4 4 4 3 4 4 5 5 5 5 5 5 5 5 5 5 5 4 4 4 3 3 2 2 2 1
7 9 8 9 8 9 9 9 8 5 -2 4 8 8 8 3 2 1 2 3 3 4 4 4 4 4 5 4 4 4 4 4 4 3 3 3 2 2 2 1 1 1 0 0
9 10 8 8 9 8 9 8 9 6 7 6 7 8 10 5 4 0 -0 1 3 4 4 4 4 4 4 4 4 4 3 3 2 2 1 1 1 1 0 0 -0 -1 -1 -1
8 10 8 8 8 8 7 8 7 8 7 7 6 8 6 7 4 2 1 3 4 4 4 5 5 4 4 3 3 3 2 2 2 1 1 0 0 -0 -0 -1 -1 -1 -1 -2
8 8 5 7 6 6 7 8 8 8 6 3 5 9 4 4 4 4 3 3 5 5 5 5 5 4 4 3 2 2 2 2 1 0 -0 -0 -0 -1 -1 -1 -1 -2 -2 -2
8 7 5 7 7 6 5 5 5 5 3 4 6 7 3 2 2 4 4 5 5 6 5 5 4 4 4 3 2 2 1 1 0 -0 -0 -1 -1 -1 -1 -1 -2 -2 -2 -3
11 6 8 12 10 6 5 5 4 7 3 7 9 9 4 3 3 2 4 5 5 5 6 5 4 5 4 3 3 2 1 0 -0 -1 -1 -1 -1 -1 -1 -2 -2 -3 -3 -3
8 7 5 7 7 6 6 5 4 6 9 8 9 7 6 5 3 5 7 5 5 5 5 5 5 5 5 3 2 1 1 -0 -0 -1 -1 -1 -1 -1 -2 -2 -3 -3 -4 -4
4 6 5 4 4 5 5 5 4 6 6 6 6 5 6 7 5 4 6 5 5 6 5 5 5 4 4 4 3 1 1 0 -1 -1 -1 -1 -1 -2 -2 -3 -3 -4 -4 -4
3 3 5 7 1 3 5 4 4 4 3 7 5 8 1 3 3 5 5 6 6 5 5 5 5 4 4 4 3 1 1 -0 -1 -1 -1 -1 -2 -3 -3 -3 -4 -4 -4 -4
2 3 4 -0 1 5 3 -0 3 4 3 1 0 -2 1 3 6 6 6 5 5 5 4 4 4 4 3 2 2 1 0 -0 -1 -1 -1 -2 -3 -3 -4 -4 -4 -4 -4 -5
1 3 1 2 2 3 2 0 1 3 3 -0 2 1 1 1 2 3 4 4 4 4 4 3 3 2 1 1 1 0 -0 -0 -1 -1 -2 -2 -3 -4 -4 -4 -4 -4 -5 -5
-0 1 4 -0 3 4 3 1 1 3 2 -3 1 -1 -3 -0 -3 -2 3 3 3 3 3 2 2 1 1 0 -0 -0 -0 -1 -1 -1 -2 -3 -3 -4 -5 -5 -5 -5 -6 -6
-0 -0 4 1 2 1 -1 -2 2 3 4 1 2 0 -1 -2 2 3 3 3 2 2 2 1 1 1 0 -0 -0 -1 -1 -1 -2 -2 -2 -3 -3 -4 -5 -5 -5 -6 -6 -7
1 1 1 0 1 3 -1 -1 2 2 1 4 3 4 3 4 3 3 2 2 2 2 2 1 1 0 -0 -0 -1 -1 -1 -1 -2 -2 -3 -3 -4 -5 -6 -6 -6 -6 -7 -7
2 1 1 2 2 -2 -0 1 3 4 5 3 4 4 4 4 3 2 1 1 1 1 1 1 0 0 -0 -1 -1 -1 -1 -2 -2 -3 -3 -4 -5 -6 -6 -6 -7 -7 -8 -8
-2 -2 -1 -1 -2 -2 -0 2 2 3 4 3 3 3 3 2 2 1 0 0 0 0 0 0 -0 -0 -0 -1 -1 -1 -2 -2 -3 -3 -4 -6 -6 -7 -7 -7 -8 -8 -9 -9
-1 -2 -4 -3 -2 -1 -0 1 2 3 3 2 2 1 1 1 1 0 -0 -1 -1 -1 -0 -0 -1 -1 -1 -1 -2 -2 -2 -3 -3 -4 -5 -7 -7 -8 -8 -8 -9 -9 -10 -10
-3 -3 -1 -2 0 2 2 3 3 2 2 2 1 1 1 0 0 -1 -1 -1 -1 -1 -1 -1 -1 -1 -1 -2 -2 -2 -3 -3 -4 -5 -7 -8 -8 -9 -9 -9 -10 -11 -11 -11